[[{"header":{"parameterUnit":"m.s-1","parameterCategory":1,"la1":30.2991,"la2":30.254,"lo1":-89.0895,"lo2":-89.0444,"dy":0.0017,"dx":0.0017,"nx":28,"ny":28,"refTime":"2024-07-02T09:00:00:Z","depth":0,"parameterNumber":2,"parameterNumberName":"U-component_of_WINDS"},"data":[0,0,0,0,0,0,0,0,0,0,0,0,0,0,0,0,0,0,0,0,0,0,0,0,0,0,0,0,0,0,0,0,0,0,0,0,0,0,0,0,0,0,0,0,0,0,0,0,0,0,0,0,0,0,0,0,0,0,2.7235,2.7234,0,2.7141,2.714,2.7139,2.6996,2.6993,2.6991,2.6988,2.6894,2.6894,2.6894,0,0,0,0,0,0,0,0,0,0,0,0,0,2.7292,2.7292,2.7235,2.7234,2.7233,2.7141,2.714,2.7138,2.6996,2.6993,2.699,2.6987,2.6894,2.6894,2.6894,0,0,0,0,0,0,0,0,0,0,0,0,0,2.724,2.7292,2.7236,2.7151,2.7142,2.7141,2.714,2.7138,2.6997,2.6993,2.6989,2.6986,2.6894,2.6894,2.6894,2.6969,0,0,2.6893,2.6893,0,0,0,0,0,0,0,0,2.7243,2.7238,2.7164,2.7157,2.7147,2.7076,2.7125,2.7081,2.6998,2.7052,2.6988,2.6984,2.6958,2.6952,2.6943,2.6964,2.696,2.6893,2.6893,2.6893,2.6893,0,0,0,0,0,0,0,2.7247,2.7241,2.7198,2.7164,2.7153,2.7117,2.7106,2.7116,2.7028,2.7047,2.7036,2.7027,2.6952,2.6943,2.694,2.6959,2.6893,2.6893,2.6893,2.6892,2.7032,2.7036,0,0,0,0,0,0,2.7263,2.7245,2.7201,2.7195,2.7186,2.712,2.7106,2.7103,2.7027,2.7012,2.703,2.7021,2.6946,2.694,2.6936,2.7014,2.6893,2.6892,2.6892,2.7028,2.7033,2.7037,0,0,0,0,0,0,2.7265,2.726,2.7205,2.7217,2.7207,2.7123,2.712,2.7103,2.7094,2.7014,2.6998,2.7038,2.6942,2.6936,2.696,2.7009,2.6892,2.6892,2.7024,2.703,2.7035,2.7176,0,0,0,0,0,0,2.7267,2.7262,2.7289,2.7219,2.7207,2.7231,2.7123,2.7104,2.7093,2.708,2.7017,2.7003,2.6939,2.6961,2.696,2.7007,2.6892,2.7019,2.7026,2.7033,2.7166,2.7186,2.7202,0,0,0,0,0,2.7269,2.7334,2.7292,2.7287,2.724,2.7235,2.7228,2.7152,2.7098,2.7125,2.7073,2.7005,2.7005,2.6965,2.6962,2.701,2.7015,2.7024,2.7033,2.7158,2.7182,2.7202,0,0,0,0,0,0,2.7414,2.7324,2.7275,2.7319,2.7286,2.721,2.7242,2.7181,2.7162,2.715,2.7058,2.7045,2.708,2.7048,2.7005,2.7076,2.6999,2.7008,2.7096,2.7118,2.7135,2.7141,2.6892,0,0,0,0,0,2.7451,2.7454,2.7375,2.7421,2.7407,2.7328,2.7323,2.7267,2.7229,2.7214,2.7164,2.713,2.7121,2.7118,2.7107,2.7162,2.7144,2.7193,2.7211,2.7226,2.7234,2.7256,2.7276,2.7065,2.7065,2.7065,0,0,2.7528,2.7479,2.7486,2.7449,2.7416,2.742,2.7317,2.7326,2.7328,2.7216,2.7234,2.7197,2.7152,2.7191,2.7206,2.7165,2.7288,2.7237,2.725,2.7249,2.7267,2.7287,2.7305,2.7071,2.707,2.7069,0,0,2.7668,2.7633,2.7665,2.7634,2.7586,2.7532,2.7541,2.7474,2.7444,2.7461,2.7376,2.7377,2.7366,2.7336,2.732,2.7447,2.7382,2.7446,2.7539,2.7562,2.7578,2.7592,2.7634,2.765,2.7455,2.7455,2.7455,0,2.777,2.7772,2.7691,2.7704,2.7689,2.7587,2.7618,2.7592,2.7543,2.7534,2.749,2.7471,2.7434,2.7462,2.7493,2.7485,2.7489,2.7452,2.7583,2.7596,2.7608,2.7646,2.7663,2.7463,2.7462,2.7461,2.7461,0,2.7897,2.79,2.7932,2.7884,2.7874,2.7897,2.7818,2.7817,2.7763,2.7714,2.7731,2.7683,2.7658,2.7661,2.761,2.7681,2.7657,2.76,2.7519,2.7637,2.7671,2.7686,2.7474,2.7471,2.7469,2.7467,0,0,2.8125,2.8031,2.8044,2.8019,2.7957,2.7958,2.7976,2.795,2.7948,2.7919,2.7929,2.7921,2.7865,2.7847,2.7791,2.7812,2.791,2.775,2.7748,2.7778,2.7982,2.8023,2.8042,2.7868,2.7871,2.7873,2.7984,0,2.825,2.8273,2.82,2.8241,2.8241,2.8143,2.8158,2.8122,2.8077,2.807,2.802,2.8014,2.7944,2.7931,2.7948,2.7895,2.7949,2.7887,2.7874,2.7875,2.7885,2.806,2.8105,2.8212,2.7998,2.8,2.8002,0,2.8398,2.8373,2.8415,2.8347,2.8344,2.8359,2.8327,2.8323,2.8279,2.8244,2.8223,2.8157,2.8168,2.8094,2.8106,2.8065,2.8056,2.803,2.8032,2.8025,2.7943,2.8055,2.8245,2.826,2.8023,2.8021,2.802,0,2.8555,2.8532,2.8553,2.8536,2.8459,2.8471,2.8439,2.8391,2.8379,2.8353,2.8343,2.832,2.8305,2.8288,2.8216,2.817,2.8236,2.8157,2.8205,2.8207,2.8221,2.822,2.8409,2.8222,2.8222,2.8222,2.8222,0,2.87,2.8728,2.8621,2.8634,2.8662,2.8577,2.8607,2.8566,2.8524,2.8526,2.8442,2.8445,2.8352,2.8345,2.829,2.8306,2.8302,2.8273,2.8257,2.8278,2.8281,2.8268,2.8257,2.8226,2.8225,2.8224,2.8224,0,2.8879,2.8809,2.8824,2.8749,2.8731,2.8755,2.869,2.8698,2.8648,2.8651,2.8647,2.8567,2.8554,2.8482,2.8453,2.8416,2.845,2.8422,2.8465,2.8454,2.8504,2.8499,2.8688,2.8707,2.8513,2.8515,2.8517,0,2.8974,2.8992,2.892,2.8914,2.8886,2.8879,2.8866,2.8784,2.8773,2.8723,2.8736,2.8716,2.8695,2.8679,2.8618,2.8595,2.8562,2.863,2.8558,2.8577,2.8558,2.8556,2.8556,2.8645,2.8647,2.8649,2.8651,0,2.9148,2.9112,2.9096,2.9068,2.9054,2.9028,2.8997,2.8998,2.8906,2.8899,2.8884,2.8868,2.8836,2.8816,2.8782,2.8749,2.8684,2.8675,2.8684,2.8703,2.8726,2.871,2.8502,2.867,2.8668,2.8667,2.8666,2.8665,2.9285,2.9296,2.9245,2.9229,2.9197,2.9169,2.9171,2.912,2.9106,2.9073,2.9026,2.9017,2.897,2.8917,2.8889,2.8879,2.8842,2.8857,2.886,2.8863,2.8872,2.8731,2.8873,2.8873,2.8872,2.8871,2.8871,0,2.9451,2.9414,2.94,2.9358,2.9345,2.9286,2.9248,2.9241,2.9233,2.9195,2.9175,2.9156,2.9136,2.9074,2.9047,2.9051,2.902,2.9046,2.9043,2.9035,2.8909,2.8902,2.9071,2.9071,2.9071,2.9071,2.9071,2.9071,2.9536,2.955,2.9508,2.9504,2.9466,2.9455,2.9438,2.9411,2.9379,2.9362,2.9344,2.9303,2.9254,2.9222,2.92,2.9182,2.9175,2.921,2.9182,2.9064,2.9045,2.9027,2.9019,2.921,2.921,2.9308,2.9309,2.931]},{"header":{"parameterUnit":"m.s-1","parameterCategory":1,"la1":30.2991,"la2":30.254,"lo1":-89.0895,"lo2":-89.0444,"dy":0.0017,"dx":0.0017,"nx":28,"ny":28,"refTime":"2024-07-02T09:00:00:Z","depth":0,"parameterNumber":3,"parameterNumberName":"V-component_of_WINDS"},"data":[0,0,0,0,0,0,0,0,0,0,0,0,0,0,0,0,0,0,0,0,0,0,0,0,0,0,0,0,0,0,0,0,0,0,0,0,0,0,0,0,0,0,0,0,0,0,0,0,0,0,0,0,0,0,0,0,0,0,2.5928,2.5929,0,2.6082,2.6084,2.6086,2.6123,2.6122,2.6121,2.612,2.6281,2.6286,2.6291,0,0,0,0,0,0,0,0,0,0,0,0,0,2.5666,2.567,2.5927,2.5929,2.5931,2.6082,2.6084,2.6086,2.6124,2.6122,2.6121,2.612,2.6279,2.6286,2.6292,0,0,0,0,0,0,0,0,0,0,0,0,0,2.5796,2.5672,2.5927,2.5968,2.5973,2.6082,2.6084,2.6087,2.6124,2.6122,2.6121,2.6119,2.6277,2.6285,2.6293,2.6372,0,0,2.6317,2.632,0,0,0,0,0,0,0,0,2.5788,2.5806,2.596,2.5965,2.5971,2.6082,2.6051,2.6183,2.6124,2.6067,2.612,2.6119,2.6216,2.6229,2.6262,2.638,2.6387,2.6317,2.6322,2.6326,2.6328,0,0,0,0,0,0,0,2.5779,2.5799,2.5989,2.5962,2.5969,2.5979,2.5996,2.6076,2.6148,2.6072,2.6075,2.6092,2.6219,2.6254,2.6266,2.6389,2.6317,2.6324,2.6329,2.6332,2.6579,2.6581,0,0,0,0,0,0,2.5763,2.5791,2.5984,2.5993,2.5874,2.5985,2.6004,2.6048,2.6148,2.6161,2.6094,2.6094,2.6241,2.6256,2.6271,2.637,2.6326,2.6333,2.6337,2.6578,2.658,2.6582,0,0,0,0,0,0,2.5757,2.578,2.5978,2.5893,2.5919,2.5991,2.6041,2.6052,2.6087,2.6164,2.6177,2.6116,2.6241,2.626,2.6347,2.6376,2.6336,2.6344,2.6575,2.6578,2.6581,2.6568,0,0,0,0,0,0,2.575,2.5778,2.5808,2.5894,2.5923,2.6049,2.6042,2.6056,2.61,2.6101,2.6188,2.6201,2.6241,2.6335,2.6354,2.6386,2.635,2.6573,2.6577,2.658,2.6567,2.657,2.6574,0,0,0,0,0,2.574,2.5799,2.5809,2.5832,2.5963,2.6051,2.6068,2.6112,2.6102,2.6133,2.6183,2.6199,2.637,2.6343,2.6366,2.64,2.6571,2.6576,2.658,2.6565,2.657,2.6574,0,0,0,0,0,0,2.5716,2.5811,2.5823,2.5912,2.5973,2.6057,2.6098,2.6116,2.6182,2.618,2.6233,2.6252,2.6335,2.6377,2.6345,2.6482,2.6471,2.648,2.6452,2.6457,2.646,2.6448,2.6356,0,0,0,0,0,2.572,2.5783,2.5864,2.5934,2.5964,2.6025,2.6065,2.6094,2.616,2.6186,2.6242,2.6306,2.6374,2.6418,2.6485,2.6573,2.6593,2.6608,2.6612,2.6615,2.6621,2.6671,2.6678,2.6596,2.6596,2.6595,0,0,2.5731,2.5791,2.5828,2.593,2.5981,2.6045,2.6047,2.6115,2.6164,2.6197,2.6281,2.6324,2.6399,2.6486,2.6527,2.6524,2.6649,2.662,2.6621,2.6627,2.6676,2.6683,2.669,2.6598,2.6598,2.6597,0,0,2.5783,2.5835,2.5898,2.5949,2.6026,2.6066,2.6081,2.6163,2.6193,2.6278,2.6304,2.6363,2.648,2.6532,2.6574,2.6645,2.6662,2.6666,2.6685,2.6732,2.6738,2.6744,2.6769,2.6777,2.6672,2.6672,2.6672,0,2.5787,2.5884,2.5929,2.5996,2.604,2.6072,2.6137,2.6184,2.6279,2.6309,2.6304,2.645,2.6503,2.6602,2.662,2.6653,2.6672,2.6655,2.6734,2.674,2.6746,2.6771,2.678,2.6672,2.6672,2.6672,2.6672,0,2.5884,2.5951,2.5994,2.6083,2.6133,2.6198,2.6253,2.6298,2.6322,2.6364,2.645,2.6515,2.6595,2.6621,2.6646,2.6724,2.6719,2.6723,2.6712,2.6753,2.6777,2.6787,2.6672,2.6672,2.6672,2.6672,0,0,2.5925,2.6038,2.6053,2.6093,2.618,2.6233,2.63,2.6378,2.6415,2.648,2.6537,2.6635,2.6639,2.6686,2.6717,2.6759,2.6811,2.6758,2.6761,2.6765,2.69,2.6896,2.6906,2.6823,2.6825,2.6826,2.6894,0,2.5987,2.6106,2.6149,2.6248,2.631,2.6342,2.64,2.646,2.6501,2.656,2.6606,2.6674,2.6674,2.6703,2.6745,2.6795,2.6838,2.6791,2.6877,2.6879,2.6855,2.6919,2.6914,2.6975,2.6903,2.6905,2.6906,0,2.6075,2.6139,2.6243,2.6322,2.635,2.6401,2.6476,2.6532,2.6601,2.6628,2.668,2.6708,2.678,2.6766,2.6866,2.6832,2.687,2.69,2.6904,2.6912,2.6894,2.6928,2.6996,2.7004,2.6921,2.692,2.6919,0,2.6092,2.6205,2.6282,2.6316,2.641,2.6445,2.6486,2.6553,2.6597,2.6663,2.6692,2.6766,2.6806,2.6862,2.691,2.6895,2.7005,2.6995,2.703,2.7028,2.705,2.7048,2.7124,2.7076,2.7076,2.7076,2.7076,0,2.6156,2.6219,2.6291,2.6338,2.6409,2.6458,2.6528,2.6571,2.663,2.6687,2.6719,2.6772,2.6832,2.6893,2.6931,2.7007,2.7025,2.7049,2.7058,2.7046,2.7042,2.707,2.7067,2.7079,2.7078,2.7078,2.7077,0,2.6187,2.6238,2.6324,2.6405,2.6427,2.6476,2.6546,2.6594,2.6636,2.6707,2.6727,2.6793,2.6866,2.6919,2.7014,2.704,2.7121,2.7131,2.7098,2.7102,2.7133,2.7129,2.7229,2.7244,2.7187,2.7187,2.7188,0,2.6224,2.6272,2.6359,2.6398,2.6439,2.6503,2.6547,2.6597,2.6643,2.6725,2.6762,2.6837,2.69,2.7015,2.7073,2.7145,2.7156,2.7186,2.7168,2.7153,2.7156,2.7152,2.7157,2.7189,2.7189,2.7189,2.7189,0,2.6283,2.6306,2.6368,2.644,2.6492,2.6551,2.6611,2.6642,2.6703,2.6752,2.6826,2.6875,2.6971,2.7045,2.7124,2.7167,2.7189,2.7195,2.7207,2.7194,2.7172,2.7183,2.7104,2.7192,2.7192,2.7192,2.7192,2.7192,2.6318,2.6362,2.6429,2.6498,2.6548,2.6603,2.6651,2.6699,2.6761,2.6842,2.6869,2.6946,2.7014,2.7121,2.7165,2.7227,2.7226,2.7243,2.7247,2.7251,2.7249,2.7163,2.7242,2.7242,2.7242,2.7242,2.7242,0,2.6378,2.6423,2.6485,2.6567,2.6621,2.6636,2.6702,2.6747,2.6814,2.6875,2.6935,2.7021,2.7093,2.7156,2.7231,2.7268,2.728,2.7286,2.7284,2.7293,2.7246,2.7228,2.7276,2.7276,2.7276,2.7276,2.7276,2.7276,2.6415,2.6491,2.6521,2.6622,2.6667,2.6742,2.6778,2.6829,2.6878,2.6972,2.7031,2.7072,2.7134,2.7214,2.7281,2.7298,2.7324,2.7327,2.7346,2.7301,2.7297,2.7293,2.7276,2.7333,2.7333,2.7388,2.7389,2.7389]}]]